Location: Lake of the Woods (North-East)
(49.6672°N, 94.8656°W)
Time: 17:29:00
(UTC-05:00)

Daily predictions for brighter satellites

Satellite Brightness Start Highest point End
(mag) Time Altitude Azimuth Time Altitude Azimuth Time Altitude Azimuth
USA 267 4.0 20:05:25 10° ENE 20:11:38 48° N 20:17:50 10° WNW
Cosmos 1408 Rocket 4.2 20:14:06 10° N 20:18:17 36° ENE 20:22:25 10° SE
Resurs 1-3 3.7 20:14:27 10° SSE 20:18:46 60° ENE 20:23:06 10° N
Cosmos 1048 Rocket 4.0 20:14:09 10° NNW 20:19:17 63° ENE 20:24:21 10° SE
FengYun 1-2 T 4.3 20:14:16 10° SSE 20:19:52 90° WNW 20:25:34 10° NNW
Cosmos 2082 Rocket 2.3 20:14:14 10° NNW 20:19:57 68° ENE 20:25:36 10° SE
Cosmos 1125 Rocket 4.0 20:16:03 10° SSE 20:20:45 35° ESE 20:25:29 10° NE
CZ-2C R/B 0.9 20:20:17 10° N 20:23:07 75° E 20:24:48 10° S
Meteor 1-24 Rocket 4.4 20:19:02 10° NNW 20:24:26 60° W 20:30:00 10° S
ERS-1 Rocket 4.3 20:23:43 10° ESE 20:27:31 22° ENE 20:31:19 10° N
SeaSat 1 3.0 20:23:14 10° SSE 20:28:08 63° WSW 20:33:03 10° NW
Timation 2 Rocket 4.0 20:21:56 10° NNW 20:28:21 69° NE 20:34:27 10° SE
HJ-1C 4.0 20:27:24 10° S 20:30:45 60° WSW 20:34:11 10° NNW
Cosmos 1758 3.5 20:27:36 10° SSE 20:31:26 47° E 20:35:19 10° NNE
ALOS 2.9 20:28:31 10° S 20:33:08 60° W 20:37:48 10° NNW
Cosmos 1447 Rocket 4.5 20:28:43 10° N 20:34:52 70° ENE 20:41:00 10° SSE
Helios 1B rocket 3.3 20:32:51 10° NE 20:36:30 29° E 20:40:06 10° SSE
Cosmos 1953 2.5 20:34:37 10° S 20:38:34 53° E 20:42:32 10° NNE
Cosmos 1937 Rocket 4.3 20:33:29 10° SW 20:38:40 56° WNW 20:43:56 10° NNE
Okean 3 Rocket 3.9 20:34:21 10° NNW 20:38:45 72° W 20:43:08 10° S
Cosmos 482 Debris 2.6 20:37:06 10° WNW 20:38:58 57° SSW 20:40:02 19° SE
Cosmos 1271 Rocket 3.8 20:35:45 10° SSE 20:39:10 27° E 20:42:36 10° NNE
BREEZE-M DEB (TANK) 1.7 20:37:08 10° W 20:39:31 83° S 20:41:29 16° E
Cosmos 1076 Rocket 3.4 20:38:41 10° N 20:42:58 85° ENE 20:47:13 10° S
Meteor 1-29 4.0 20:41:52 10° NE 20:44:50 25° E 20:47:47 10° SSE
Cosmos 1766 4.2 20:41:32 10° SSW 20:45:20 53° WNW 20:49:11 10° N
SAR-Lupe-4 3.5 20:42:37 10° SSE 20:46:11 68° ENE 20:49:47 10° N
Cosmos 1674 2.6 20:42:37 10° N 20:46:23 64° ENE 20:50:10 10° SSE
Cosmos 2173 Rocket 4.4 20:40:58 10° SSE 20:46:37 39° E 20:52:24 10° NNE
Cosmos 1934 Rocket 4.4 20:41:11 10° SSW 20:47:15 66° WNW 20:53:19 10° N
Cosmos 1939 Rocket 3.6 20:44:14 11° SE 20:47:51 37° ENE 20:51:43 10° N
Lacrosse 4 Rocket 3.3 20:44:46 10° WSW 20:48:24 31° NW 20:52:04 10° NNE
YAOGAN 6 4.1 20:47:36 16° E 20:49:18 22° ENE 20:52:12 10° NNE
Spot 1 4.3 20:45:11 10° SSE 20:49:55 75° ENE 20:54:56 10° NNW
COSMOS 2487 2.8 20:48:56 10° NNW 20:52:30 68° WSW 20:56:03 10° SSE
Lacrosse 5 rocket 1.3 20:51:28 10° WNW 20:55:28 69° SW 20:58:14 17° SE
CZ-4B DEB 2.8 20:52:57 13° SSE 20:55:35 55° ENE 20:58:37 10° N
Cosmos 2251 Rocket 4.0 20:52:27 10° NNW 20:57:35 46° ENE 21:01:25 17° SE
Helios 1A 2.9 20:54:41 10° SSE 20:58:52 87° ENE 21:03:07 10° NNW
Cosmos 1269 Rocket 4.5 20:55:42 10° NNW 21:00:56 63° WSW 21:06:09 10° S
ISS -2.1 21:00:21 10° S 21:02:04 17° SSE 21:02:04 17° SSE
Cosmos 1766 Rocket 3.7 20:59:53 10° NNW 21:04:24 81° W 21:08:53 10° S
SAR-Lupe-1 4.1 21:01:23 10° SSE 21:04:58 84° WSW 21:08:35 10° NNW
USA 186 1.9 21:04:49 10° S 21:06:56 44° W 21:09:06 10° NNW
GP-B 3.0 21:05:12 10° S 21:09:38 86° E 21:14:07 10° N
CZ-3B DEB 2.5 21:01:06 10° WSW 21:10:38 80° NNW 21:14:42 12° ENE
Meteor 1-4 Rocket 2.9 21:07:15 10° SSW 21:10:41 63° WNW 21:14:11 10° N
CZ-2D R/B 4.4 21:07:17 10° S 21:11:00 44° W 21:14:46 10° NNW
Cosmos 372 Rocket 3.9 21:08:13 10° SSW 21:13:19 72° ESE 21:18:29 10° NNE
Cosmos 1626 3.9 21:12:08 10° NNE 21:14:33 17° ENE 21:14:33 17° ENE
Cosmos-2242 2.9 21:10:30 10° S 21:14:43 71° E 21:18:59 10° NNE
Cosmos 1805 4.4 21:11:54 10° SSW 21:15:40 46° WNW 21:19:29 10° N
Cosmos 2369 Rocket 4.1 21:18:38 12° ENE 21:18:38 12° ENE 21:19:21 10° ENE
Resurs 01 Rocket 3.4 21:13:25 10° SSW 21:17:25 33° W 21:21:27 10° NNW
Cosmos 2016 Rocket 4.2 21:12:35 10° SSE 21:18:31 49° E 21:24:24 10° NNE
USA 215 3.9 21:13:01 10° ENE 21:18:40 30° SE 21:24:16 10° S
ATLAS CENTAUR R/B 2.9 21:20:43 10° N 21:21:32 12° NNE 21:21:32 12° NNE
Cosmos 389 Rocket 4.1 21:25:51 20° NE 21:25:51 20° NE 21:27:28 10° NE
Cosmos 1356 Rocket 3.4 21:21:27 10° N 21:25:33 60° ENE 21:27:16 32° SE
Cosmos 1833 Rocket 3.6 21:20:21 10° NW 21:25:43 47° WSW 21:31:04 10° S
Cosmos 1725 Rocket 4.4 21:23:25 18° SSE 21:27:30 41° E 21:33:14 10° NNE
Lacrosse 5 2.3 21:23:19 10° WSW 21:28:22 62° NNW 21:33:25 10° NE
BREEZE-M DEB 4.1 21:25:40 10° W 21:29:34 86° N 21:30:08 56° E
Cosmos 2221 4.1 21:33:36 20° ENE 21:33:36 20° ENE 21:35:52 10° NE
Cosmos 1470 2.9 21:28:44 10° SSW 21:32:43 78° WNW 21:36:42 10° N
Cosmos 494 Rocket 3.9 21:30:12 10° NNW 21:35:22 86° ENE 21:38:10 27° SSE
SPOT 5 3.6 21:33:35 31° ESE 21:35:33 43° ENE 21:40:33 10° N
Cosmos 1743 Rocket 3.6 21:31:16 10° NNW 21:35:43 80° W 21:38:55 19° S
Cosmos 2100 Rocket 4.0 21:29:40 10° S 21:36:01 88° WNW 21:42:27 10° N
Cosmos 1733 3.4 21:32:12 10° SSW 21:36:04 74° W 21:39:59 10° N
NOAA 11 4.5 21:34:16 30° SE 21:36:39 50° ENE 21:41:59 10° N
Cosmos 1500 Rocket 3.4 21:32:44 10° N 21:37:05 80° E 21:39:09 30° SSE
Cosmos 1867 3.6 21:32:38 10° SW 21:38:06 83° NW 21:43:38 10° NE
Cosmos 2278 Rocket 3.6 21:33:00 10° WSW 21:38:19 40° NW 21:43:40 10° NNE
Cosmos 1340 Rocket 3.7 21:35:40 10° NNW 21:39:35 49° W 21:42:57 13° S
H-2A R/B 3.7 21:40:22 18° NE 21:40:22 18° NE 21:42:56 10° NNE
Fregat R/B Cluster 11 3.9 21:35:42 10° SW 21:40:14 84° NW 21:43:41 10° NE
Cosmos 1805 Rocket 4.5 21:36:40 10° N 21:40:36 30° ENE 21:40:41 30° ENE
Tsikada Rocket 4.0 21:36:14 10° N 21:42:24 63° ENE 21:45:44 28° SSE
ATLAS 5 CENTAUR R/B 1.7 21:39:49 10° SW 21:44:35 76° SE 21:49:51 10° NE
Cosmos 2344 4.3 21:38:22 10° WSW 21:46:05 60° NW 21:55:31 10° NE
Cosmos 1184 Rocket 3.4 21:43:58 10° NNW 21:47:19 56° W 21:48:23 36° SSW
Terra 3.4 21:47:55 19° ENE 21:48:02 19° ENE 21:51:23 10° NNE
Envisat 3.8 21:46:01 10° S 21:50:57 51° W 21:55:55 10° NNW
USA 267 3.4 21:50:51 31° E 21:54:12 70° NNE 22:00:43 10° WNW
Cosmos 2297 4.4 21:49:40 10° SW 21:55:18 56° NW 22:00:59 10° NNE
Cosmos 2058 2.8 21:53:02 10° N 21:57:14 77° E 21:57:44 65° SE
Cosmos 1802 Rocket 4.1 21:52:27 10° SSW 21:58:35 77° W 22:04:50 10° N
Geosat 4.4 21:54:13 10° NNE 21:59:13 63° NW 22:04:10 10° SW
SL-08 RB Rocket 4.1 21:58:59 45° E 21:59:19 46° ENE 22:03:48 10° N
H-2A R/B 2.6 22:02:14 40° E 22:02:55 42° ENE 22:07:51 10° N
Cosmos 2082 Rocket 4.3 21:59:10 10° NW 22:03:31 23° WSW 22:07:50 10° SSW
SL-14 R/B 3.9 22:00:59 10° NNW 22:04:45 52° W 22:05:54 37° SSW
ERS-1 Rocket 3.2 22:03:18 29° S 22:05:52 65° WSW 22:10:54 10° NNW
Cosmos 2151 3.2 22:03:58 10° NNW 22:08:13 67° W 22:09:13 48° SSW
Meteor 1-11 4.4 22:03:05 10° NNW 22:08:39 70° W 22:11:31 29° S
Helios 1B rocket 4.3 22:08:07 10° N 22:11:48 31° WNW 22:15:28 10° SW
MetOp-A 4.1 22:10:20 43° S 22:12:11 84° WSW 22:17:35 10° NNW
Cosmos 1816 Rocket 4.4 22:07:39 10° N 22:13:53 87° E 22:16:18 40° S
Cosmos 1842 Rocket 3.9 22:11:40 23° SSW 22:14:17 63° WNW 22:18:40 10° N
ARGOS 3.0 22:14:09 55° SE 22:15:20 78° ENE 22:20:43 10° NNW
Meteor 1-16 Rocket 4.5 22:12:23 10° SSW 22:18:16 75° WNW 22:24:14 10° N
YAOGAN 6 3.9 22:22:03 33° WSW 22:22:41 36° W 22:26:10 10° NNW
USA 245 4.3 22:24:39 50° S 22:26:18 86° WSW 22:32:43 10° NNW
Cosmos 2233 Rocket 3.8 22:31:22 58° SSE 22:32:35 75° E 22:38:44 10° NNE
Lacrosse 5 rocket 3.8 22:32:33 10° WSW 22:33:55 12° WSW 22:33:58 12° WSW
Meteor 2-1 Rocket 4.2 22:33:34 49° SSW 22:35:12 87° W 22:40:54 10° NNE
Cosmos 1703 4.0 22:32:13 10° NNW 22:35:30 51° NW 22:35:30 51° NW
Cosmos 2297 Rocket 4.2 22:40:35 10° N 22:43:58 16° NNE 22:45:30 14° NE
SPOT 1/Viking Rocket 3.5 22:46:35 73° SW 22:46:48 74° WSW 22:52:03 10° NNW
Sich 1 3.7 22:43:52 10° N 22:47:13 51° N 22:47:13 51° N
Cosmos 1626 3.7 22:46:42 10° NNW 22:49:14 34° NW 22:49:14 34° NW
Cosmos 1666 Rocket 4.4 22:47:12 10° NNW 22:50:22 48° NNW 22:50:22 48° NNW
Cosmos 1633 Rocket 3.9 22:50:02 10° N 22:53:12 46° N 22:53:12 46° N
Cosmos 407 Rocket 4.2 22:49:33 10° NNW 22:53:58 46° NNE 22:53:58 46° NNE
Cosmos 1833 4.1 22:52:01 10° NNW 22:57:24 81° N 22:57:24 81° N
CZ-4C R/B 3.9 23:02:44 22° NE 23:02:44 22° NE 23:04:59 10° NE
Cosmos 2369 Rocket 2.4 23:00:18 62° NNE 23:00:18 62° NNE 23:04:56 10° NNE
USA 215 3.1 22:55:41 10° ENE 23:02:16 85° SSE 23:08:49 10° WSW
Cosmos 2221 3.8 23:10:26 39° NW 23:10:26 39° NW 23:13:58 10° N
Cosmos 2227 Rocket 3.8 23:06:08 10° NNW 23:10:42 24° NE 23:10:52 24° NE
Lacrosse 5 3.2 23:07:22 10° WNW 23:12:04 36° N 23:12:59 33° NNE
SPOT 5 4.4 23:12:49 31° WSW 23:13:42 33° W 23:18:29 10° NNW
H-2A R/B 3.7 23:17:29 31° NW 23:17:29 31° NW 23:19:48 10° NNW
Cosmos 1464 Rocket 4.1 23:20:44 65° NNE 23:20:44 65° NNE 23:26:05 10° NNE
CZ-3B DEB 3.2 23:17:27 10° WNW 23:21:28 31° NW 23:21:28 31° NW
Terra 2.9 23:26:48 42° NW 23:26:48 42° NW 23:30:05 10° NNW
Cosmos 1943 Rocket 3.5 23:29:55 31° NNE 23:29:55 31° NNE 23:32:44 10° NNE
ATLAS 5 CENTAUR R/B 3.7 23:25:24 10° W 23:29:49 31° NNW 23:34:40 10° NE
Cosmos 2034 Rocket 4.4 23:38:11 57° NNE 23:38:11 57° NNE 23:43:05 10° NNE
USA 267 3.7 23:38:11 49° WSW 23:38:11 49° WSW 23:43:46 10° WNW
H-2A R/B 3.4 23:42:52 33° W 23:42:52 33° W 23:47:12 10° NNW
Cosmos 2219 4.0 23:45:11 10° NNW 23:49:12 48° NNW 23:49:12 48° NNW
